Location: Bavegemberg
(50.9500°N, 3.8833°E)
Time: 03:30:33
(UTC+00:00)

COSMOS 2406 - Pass Details

Date: 23 May 2024
Orbit: 844 x 861 km, 71.0° (Epoch: 21 June)

Event Time Altitude Azimuth Distance (km) Brightness Sun altitude
Exits shadow 01:19:31 22° 219° (SW) 1,798 4.3 -15.2°
Maximum altitude 01:23:20 74° 301° (WNW) 898 3.3 -15.0°
Drops below altitude 10° 01:29:08 10° 28° (NNE) 2,509 7.1 -14.6°
Sets 01:31:36 0° 30° (NNE) 3,448 8.3 -14.4°
